Wind_Speed
38 37 41 43 43 42 38 37 33 24 19 20 20 22 22 15 14 20 16 14 21 21 20 20 17 21 20 14 16 20 23 22 21 22 22 21 21 20 19 20 24 29 32 34 34 33 31 27 24 22 20 18 16 15 15 14 14 14 15 15 15 15 15 15 15 15 15 15 15 15 14 12 11 9 8 8 7 7 6 6 5 6 7 9 10 11
38 40 44 45 41 39 36 35 34 26 17 17 20 19 20 18 13 18 19 14 18 19 18 19 18 20 20 14 14 18 21 23 22 23 22 22 21 21 21 22 24 26 28 30 28 27 25 22 21 21 19 18 16 15 14 13 13 14 14 15 15 14 14 14 15 15 15 15 14 14 13 12 11 10 8 7 7 6 6 6 6 8 10 11 11 13
40 43 43 41 38 36 34 33 33 30 20 16 19 18 18 21 17 17 20 15 15 17 16 18 20 19 20 17 15 17 19 19 20 20 18 18 19 22 24 25 24 24 28 30 24 22 22 19 20 20 19 18 16 15 14 13 14 14 14 14 14 14 14 15 15 15 14 13 13 13 13 12 11 10 8 7 7 6 7 7 9 10 11 12 13 14
40 41 41 38 36 36 34 32 32 31 27 19 18 20 18 21 20 16 18 16 14 15 15 16 19 19 20 20 18 18 18 17 18 19 18 18 19 23 25 25 22 24 30 30 23 22 23 20 21 21 19 18 17 16 15 14 14 14 14 14 14 15 15 15 15 14 14 13 13 13 12 11 10 9 8 7 7 7 8 9 10 11 12 13 14 15
39 37 38 37 35 35 34 33 33 32 32 27 20 20 19 20 21 16 15 16 14 14 15 15 15 18 21 21 21 21 20 20 22 21 20 18 20 23 24 23 22 22 26 24 21 26 27 22 22 22 20 19 18 17 16 15 15 15 15 15 15 15 15 15 15 14 14 14 13 13 12 11 10 8 8 7 7 8 8 9 10 11 12 13 14 16
36 33 34 36 36 35 34 35 35 34 34 32 26 22 18 18 20 17 14 14 12 12 16 16 11 13 21 24 21 21 22 23 24 23 21 19 21 23 24 24 23 21 23 21 21 27 27 23 22 22 20 19 18 17 17 17 17 16 15 15 15 15 15 15 15 15 14 14 13 12 11 10 9 8 8 7 7 8 8 9 10 11 12 14 15 16
34 31 30 34 37 35 34 34 36 35 33 33 32 27 20 16 17 16 13 11 11 11 15 19 13 8 15 23 23 22 22 23 24 23 23 24 23 23 25 25 23 20 21 22 22 24 22 20 22 22 21 20 18 18 18 18 18 17 16 16 15 15 15 15 15 14 14 13 12 10 10 10 9 9 8 7 8 8 9 10 11 12 13 14 15 16
33 31 27 29 34 36 35 34 34 35 32 30 31 28 23 19 16 14 12 9 11 12 13 18 18 10 10 17 21 23 23 23 24 24 24 25 25 25 25 25 22 19 17 19 20 20 19 20 23 23 21 21 20 19 19 19 18 18 17 16 16 16 15 15 14 13 12 11 11 10 10 10 9 8 8 8 9 9 10 11 12 12 13 15 15 16
30 32 29 27 28 34 37 36 33 32 29 26 27 26 24 22 18 15 12 10 10 11 13 17 18 10 9 16 19 21 26 27 25 25 24 25 26 26 26 23 20 17 16 17 19 20 22 24 25 24 23 22 22 21 21 20 19 18 18 17 17 16 14 14 12 11 10 10 10 10 9 9 9 9 9 10 10 11 12 12 13 13 14 15 15 15
24 28 29 27 27 31 34 33 31 30 27 23 23 22 21 21 20 18 15 12 11 10 15 20 19 10 7 15 21 21 26 30 29 26 23 24 27 27 25 21 18 19 20 21 23 26 27 27 26 25 24 23 22 22 22 21 20 19 18 17 17 15 14 13 12 11 10 10 10 10 10 10 10 11 11 12 12 12 13 13 13 14 14 15 15 14
19 21 25 26 27 27 26 28 30 29 26 22 21 21 19 17 17 17 16 13 10 9 16 23 21 14 7 10 20 24 24 25 26 27 26 26 27 27 24 21 20 22 24 25 27 30 30 29 27 25 24 23 22 22 22 22 21 20 19 18 17 16 14 13 13 12 11 11 11 11 11 11 11 12 12 13 13 13 13 13 13 14 14 14 13 13
18 19 24 26 25 22 20 25 27 27 26 24 23 23 18 14 12 12 12 12 9 7 12 21 21 17 12 8 12 17 19 19 20 21 24 27 26 25 25 23 22 24 26 27 29 31 31 29 27 25 24 24 23 22 23 22 21 21 20 19 17 16 15 14 13 12 12 11 11 11 11 11 12 12 13 13 12 12 12 12 13 14 14 13 12 12
20 20 25 26 25 22 20 24 27 26 28 26 25 27 19 11 9 8 8 9 7 3 4 11 15 14 15 15 13 12 13 15 18 18 20 24 24 23 24 25 25 26 27 30 32 32 32 30 28 27 26 25 24 23 23 23 22 22 20 19 18 17 16 15 14 13 12 12 11 11 11 12 12 12 12 11 10 10 11 12 13 14 14 13 12 12
18 19 25 28 28 28 25 27 32 31 32 30 29 31 21 9 7 7 7 5 4 3 5 8 10 9 11 16 20 20 17 14 15 17 17 19 24 25 26 26 26 27 27 31 34 33 33 32 29 28 27 26 25 25 24 24 23 22 21 20 19 18 17 16 15 14 13 13 12 12 12 12 12 11 10 10 10 10 12 13 14 14 14 13 12 12
17 12 24 29 26 31 30 27 30 31 33 32 31 31 24 14 9 6 7 5 3 4 8 11 8 6 7 10 15 20 22 20 15 15 16 18 24 27 28 27 27 27 29 31 34 34 34 32 29 28 28 27 26 26 25 24 24 23 22 21 20 18 18 17 15 15 14 14 13 12 12 11 11 10 10 10 11 12 13 14 14 14 13 12 12 12
18 8 20 27 20 26 31 27 25 26 30 33 32 31 30 25 14 6 5 7 5 4 6 11 8 5 8 8 10 13 16 19 16 14 15 18 24 27 27 28 28 29 30 31 34 35 34 32 30 29 29 28 28 27 26 25 24 24 22 21 20 19 18 17 16 15 15 14 13 12 11 11 11 11 11 11 12 13 14 15 15 14 13 12 12 12
20 10 18 25 16 18 27 28 26 24 27 33 33 29 29 27 17 6 4 6 7 3 6 10 8 7 9 7 11 13 12 15 16 15 16 17 21 26 28 30 32 32 32 32 35 36 35 34 32 32 31 29 28 26 24 23 23 23 23 22 21 20 19 18 17 17 16 15 14 13 12 12 12 11 11 12 13 15 15 16 15 14 13 12 12 12
21 12 15 23 17 15 22 26 27 25 25 32 34 30 27 23 17 10 5 4 6 5 6 8 7 10 12 9 11 14 11 11 13 14 17 18 20 25 30 32 33 32 30 32 37 39 39 37 35 34 32 29 26 23 21 22 22 23 23 22 21 20 18 18 19 18 18 17 15 14 13 13 12 12 12 13 15 16 16 16 14 13 12 12 12 13
23 13 12 22 19 16 21 24 26 28 27 28 31 32 28 19 16 14 7 3 6 4 3 5 6 10 15 13 13 13 10 9 11 14 17 19 21 24 27 30 31 28 27 33 40 42 41 36 33 32 30 27 24 22 22 22 23 24 24 22 21 20 20 20 20 20 19 18 17 15 14 13 12 12 13 15 15 16 15 14 13 12 12 12 12 13
23 15 10 20 21 18 23 26 29 32 30 25 24 31 32 21 16 18 11 5 5 3 2 3 3 6 13 15 15 14 11 9 9 13 17 18 20 21 22 27 30 30 31 37 41 40 36 31 29 29 28 25 23 22 23 23 23 24 23 21 21 21 22 21 21 21 20 19 18 16 14 14 13 14 15 15 15 15 14 13 13 12 12 12 13 14
20 18 11 19 25 23 27 31 32 33 33 29 24 29 32 22 15 18 17 11 6 3 2 4 2 2 7 11 13 13 13 11 10 14 18 20 21 21 22 25 30 35 39 39 37 35 30 27 28 29 28 26 23 22 22 22 22 22 21 20 19 20 21 21 21 21 20 19 18 16 15 15 14 15 15 15 15 14 14 13 12 12 12 13 14 15
18 20 15 21 29 26 25 29 29 32 35 33 28 29 31 25 17 14 13 14 10 3 3 2 2 1 4 8 13 16 16 13 12 15 19 21 22 22 24 25 28 36 39 34 32 33 31 27 28 28 28 24 20 20 22 23 23 21 17 17 18 19 20 20 20 20 19 19 18 17 16 15 15 15 16 15 14 13 13 13 13 13 13 14 15 16
19 21 16 19 29 28 23 25 26 27 33 34 30 30 30 30 26 17 10 12 12 4 1 1 2 0 4 9 14 18 19 16 14 16 19 22 23 23 24 25 28 33 35 30 30 32 30 27 25 23 22 18 16 18 21 24 22 17 13 14 17 18 18 18 19 19 19 18 17 17 16 16 16 16 16 15 14 13 13 13 13 14 14 15 16 17
19 21 18 14 21 25 23 24 25 24 29 33 34 32 31 32 32 22 11 10 14 12 6 2 2 2 3 9 16 19 19 18 16 18 20 21 23 22 22 24 26 29 32 29 27 28 27 22 19 18 17 15 16 19 22 23 19 13 12 13 15 16 17 18 18 19 18 17 16 16 17 17 17 16 16 14 14 14 14 14 14 14 15 15 15 16
18 18 20 12 10 15 16 17 23 28 31 35 37 35 32 30 29 24 17 14 16 20 18 8 3 5 3 4 13 19 19 19 18 20 22 22 22 22 21 23 23 26 30 29 28 30 28 25 23 20 19 17 18 20 23 25 22 18 17 15 14 16 17 18 19 19 18 17 16 17 17 17 17 16 15 14 14 14 14 14 14 14 14 15 15 16
17 15 21 15 8 10 11 9 17 29 32 32 34 35 33 30 28 25 23 20 15 18 23 17 9 9 7 4 6 14 18 20 19 21 23 22 22 22 22 23 26 28 29 30 31 32 30 30 28 25 24 22 20 21 26 29 26 22 20 18 17 18 19 19 19 18 18 17 17 17 18 18 17 16 15 14 14 15 15 15 14 14 15 16 17 18
20 15 19 18 12 15 17 12 15 26 31 30 31 34 34 32 30 26 24 23 18 16 21 24 18 13 13 11 8 9 14 19 21 22 24 24 23 22 22 24 27 30 31 32 33 30 29 31 30 29 31 29 26 26 29 28 24 21 21 19 18 18 18 18 18 18 18 17 17 17 18 18 17 16 15 15 15 15 15 15 15 16 16 17 18 19
22 17 18 17 13 14 19 19 19 24 30 32 32 31 32 32 31 31 29 25 20 15 15 20 21 17 15 12 10 9 10 16 21 23 25 27 26 25 25 26 28 31 32 34 33 30 30 31 31 32 34 31 28 28 25 21 20 21 21 19 17 15 15 16 16 17 17 17 17 17 18 18 17 16 15 16 16 16 16 17 17 18 19 19 20 21
23 20 19 18 13 10 12 14 16 20 25 31 32 30 30 31 32 35 34 27 22 18 13 13 16 17 14 11 11 11 10 13 19 23 25 27 27 26 26 28 29 30 30 32 32 30 30 29 28 30 29 25 24 23 18 17 19 20 19 16 13 12 14 14 15 17 17 17 16 17 17 17 16 16 16 16 17 17 17 18 19 20 21 22 23 24
22 20 21 20 16 13 10 7 9 15 22 27 30 30 28 29 31 32 32 29 26 24 18 16 17 17 17 16 16 15 12 13 17 22 24 25 26 26 26 27 28 27 27 30 31 31 31 27 24 24 23 20 19 19 18 18 19 19 17 14 12 13 14 15 16 17 16 15 15 15 16 16 16 16 17 17 17 18 18 20 21 22 23 24 25 26
21 18 21 21 17 15 16 11 6 11 20 25 27 29 28 28 29 29 29 30 30 29 24 21 21 21 19 18 18 17 15 16 17 20 23 24 24 25 25 25 25 26 27 28 29 31 28 21 17 17 18 18 19 20 20 19 19 19 17 15 14 15 15 16 16 16 14 14 14 15 15 15 16 17 17 17 17 18 20 21 23 24 25 26 27 29
23 16 17 20 17 13 15 15 10 9 17 24 27 28 28 28 28 29 30 30 30 30 25 19 18 19 17 14 13 15 17 18 19 20 22 23 24 24 24 24 26 27 27 28 29 28 22 16 15 17 18 20 22 23 20 19 20 20 18 16 16 16 16 16 15 14 13 13 13 14 14 15 16 16 17 17 18 19 21 23 24 25 26 27 29 30
25 17 14 18 16 10 11 12 10 7 10 17 26 29 28 28 27 27 29 28 28 29 26 19 15 15 16 13 10 12 16 19 21 21 22 24 25 25 24 25 26 25 23 25 25 21 16 16 18 20 20 22 23 22 18 18 19 19 18 17 17 16 16 15 13 13 12 12 12 13 14 15 16 16 17 18 19 20 22 24 25 26 27 29 30 31
25 19 14 17 16 10 9 6 5 7 7 11 24 30 28 28 28 27 28 29 29 29 27 22 16 13 14 13 10 9 11 16 20 21 22 23 25 25 24 22 20 19 20 21 19 16 15 16 18 21 21 20 18 15 15 17 19 19 18 18 17 16 15 13 12 11 10 10 11 12 13 14 15 16 17 18 20 21 23 24 26 27 28 30 30 30
26 22 16 16 16 13 11 8 4 4 6 10 20 27 29 29 29 29 30 31 32 31 28 25 20 16 13 12 10 8 8 12 17 19 20 20 21 21 20 19 18 19 19 18 16 15 15 16 18 19 16 12 11 11 12 14 17 18 18 18 17 15 13 11 9 9 8 9 10 11 13 14 15 15 16 18 20 21 23 24 26 27 28 28 28 27
26 25 18 13 13 13 12 9 4 1 2 7 14 21 27 29 31 32 32 32 32 30 28 26 23 19 16 14 12 10 10 13 17 17 18 18 17 15 13 14 18 19 18 17 16 16 16 17 16 12 9 8 9 9 10 12 15 17 17 16 14 12 10 8 7 7 7 8 9 10 12 13 14 15 16 17 19 21 23 24 25 26 26 25 25 24
26 27 23 13 9 11 13 10 6 4 2 4 8 13 19 24 28 30 30 30 30 28 26 25 24 23 20 17 14 12 13 17 20 19 18 17 16 16 14 16 18 19 19 19 18 17 16 14 11 9 9 10 10 9 10 10 13 16 16 14 12 9 8 7 6 6 6 7 9 10 11 12 13 14 16 17 19 21 22 23 23 23 22 22 21 21
26 28 26 16 8 11 15 10 5 5 4 4 5 7 11 15 20 24 25 26 27 27 24 23 23 23 22 20 17 14 15 19 22 21 22 22 22 23 22 21 21 20 19 18 17 15 13 11 9 10 12 13 12 12 11 11 13 14 14 12 10 7 6 5 5 5 6 7 8 9 10 12 13 14 16 18 19 20 20 20 20 19 19 18 17 17
23 27 26 20 13 14 15 9 5 6 8 8 5 4 8 10 13 18 18 20 24 25 23 22 22 21 22 22 20 17 18 21 22 22 25 26 27 28 26 25 24 20 18 16 13 10 9 9 11 13 14 14 13 12 12 12 13 13 13 11 8 5 4 4 4 5 6 7 8 9 11 12 13 15 16 17 17 17 16 16 15 15 14 13 12 12
20 25 25 21 18 18 15 10 8 9 11 11 9 6 8 10 12 13 10 12 19 21 19 20 21 20 21 22 22 20 20 21 21 21 24 26 27 28 27 25 23 21 19 17 12 10 10 12 13 12 11 10 8 8 10 12 12 12 11 9 6 3 3 4 4 5 6 7 8 10 11 12 13 14 14 14 13 13 12 11 10 9 9 9 10 11
17 22 22 21 20 20 15 10 8 9 11 12 11 9 9 10 12 11 7 7 13 16 16 18 21 23 24 24 23 21 21 20 18 19 22 25 29 31 28 24 21 20 18 16 14 14 15 13 11 9 8 8 8 9 10 10 10 9 8 6 4 3 4 4 4 4 6 8 9 10 11 11 11 11 10 10 9 8 7 6 6 7 8 9 11 12
17 17 18 21 21 20 16 11 7 9 12 12 11 11 12 12 11 10 8 7 9 13 17 19 21 24 27 27 25 23 23 22 20 19 20 25 31 33 30 26 24 22 20 18 17 17 15 12 10 9 9 9 10 11 11 10 10 9 7 5 4 4 3 3 4 5 7 8 9 9 8 8 7 7 6 5 4 4 5 6 7 8 9 11 12 13
22 17 16 20 21 17 15 10 5 7 12 14 13 12 14 13 11 9 10 9 10 12 17 20 22 24 27 29 28 25 25 24 23 21 21 25 30 31 29 26 24 23 22 20 19 17 14 12 11 11 11 12 12 12 11 11 10 8 6 5 5 3 2 3 4 6 7 7 6 6 5 4 3 2 1 2 4 6 7 8 9 10 12 13 14 15
25 22 17 20 20 17 15 14 10 10 12 14 14 14 13 14 14 12 12 13 13 15 17 21 24 25 26 27 27 26 26 26 26 24 24 26 29 30 28 26 23 21 21 19 17 16 14 13 12 13 14 14 13 12 12 10 9 7 6 5 4 2 2 4 5 6 5 4 3 2 2 1 1 2 4 6 7 8 9 10 11 13 14 16 16 17
25 25 21 21 21 18 17 19 18 14 12 11 12 15 15 16 17 16 15 15 16 17 18 21 24 26 26 26 27 28 28 28 27 26 26 28 30 30 29 27 24 21 20 18 17 16 15 15 15 15 15 15 14 13 11 9 8 6 5 4 2 2 3 4 4 3 2 2 2 2 3 4 5 7 8 9 10 11 11 13 14 15 16 17 18 19
24 26 22 21 22 21 20 21 19 14 11 9 10 13 16 18 19 17 16 17 17 16 17 21 24 27 27 27 28 28 29 28 27 27 27 28 30 29 28 26 24 22 20 17 16 16 16 17 17 16 15 14 13 12 10 8 6 4 3 2 2 3 4 3 2 2 3 3 4 5 7 8 9 9 10 11 13 13 14 15 16 17 18 18 19 20
23 26 23 22 24 24 21 20 18 15 13 11 10 11 14 18 19 18 16 16 15 14 15 19 22 23 25 27 28 28 28 28 28 28 29 29 29 29 27 25 23 21 18 16 16 16 17 16 16 15 14 13 12 10 8 6 4 3 3 2 2 3 3 2 4 5 6 7 7 8 10 10 11 12 13 14 15 15 15 15 16 17 18 18 19 19
22 24 23 22 24 25 22 19 18 17 15 13 11 10 12 15 18 18 15 13 13 13 13 16 19 17 17 20 23 24 26 29 29 31 32 30 28 27 26 24 22 20 19 18 18 17 17 16 14 13 13 12 10 8 6 4 3 3 3 2 2 3 4 5 7 8 9 10 10 11 12 12 13 14 15 15 15 15 15 15 16 16 16 17 18 18
20 23 22 20 21 23 21 19 18 17 16 14 12 10 11 13 16 17 15 12 12 12 11 13 16 16 14 14 17 20 26 29 29 30 32 31 28 27 25 23 21 21 20 20 19 18 16 14 13 12 11 10 8 6 5 4 3 3 2 2 3 5 7 9 10 11 11 12 13 13 14 14 14 15 15 14 14 14 14 15 15 15 15 15 16 16
17 20 20 18 18 19 18 17 17 16 14 13 12 11 11 12 14 16 16 13 11 10 9 9 12 15 15 14 15 20 26 29 28 28 30 29 27 26 25 23 23 23 22 21 20 17 14 12 12 11 10 9 7 5 5 4 4 3 3 4 6 9 11 12 13 13 13 14 14 15 15 14 14 14 14 13 13 13 13 13 13 13 13 13 14 15
15 14 15 15 16 16 16 14 14 14 12 11 11 11 12 13 14 15 16 15 12 10 9 9 11 14 16 17 18 21 25 27 28 29 30 29 27 26 26 25 24 24 23 22 19 16 13 12 12 11 10 8 7 6 5 5 4 4 5 7 10 12 14 14 14 15 15 15 15 15 14 14 13 13 13 12 12 12 12 12 12 12 12 13 13 14
Wind_Direction
203 205 207 207 207 205 203 200 200 202 200 196 197 200 199 193 197 198 193 198 202 205 213 214 215 214 212 206 194 188 193 196 186 183 188 191 195 196 198 207 210 210 210 207 203 202 198 196 201 204 208 213 214 220 221 212 210 211 209 208 207 208 210 211 212 215 219 220 220 221 224 229 235 240 242 243 246 248 257 269 281 300 313 317 320 323
206 210 212 211 209 207 206 203 202 203 199 196 199 198 198 195 190 196 198 197 198 203 210 210 211 213 214 211 196 190 193 196 195 194 196 198 198 195 201 211 215 216 217 217 217 215 206 193 198 207 211 216 218 222 223 214 212 212 208 208 208 207 207 206 208 212 215 219 222 224 227 230 233 233 233 233 237 245 256 266 280 296 309 314 318 323
208 214 214 212 211 208 207 206 204 204 198 191 196 195 196 196 192 194 199 200 197 200 206 205 208 211 214 214 203 199 203 202 202 203 204 205 199 197 205 213 216 220 219 216 218 226 218 198 200 210 214 220 222 223 224 220 216 214 210 209 207 205 203 203 206 209 213 218 221 224 226 227 228 226 222 223 230 245 260 272 284 295 304 311 317 321
208 214 213 211 211 209 207 206 205 206 202 193 189 190 192 192 192 194 199 205 203 200 202 202 206 212 215 217 215 213 214 210 207 205 205 206 200 201 209 213 218 223 221 212 206 215 215 204 204 209 213 220 222 222 224 221 217 214 211 208 206 205 204 204 205 207 212 216 218 220 221 221 221 219 216 220 233 251 267 277 287 295 301 308 315 318
210 214 213 210 212 210 207 206 205 205 205 201 190 186 189 188 190 194 199 206 208 206 206 202 209 218 217 217 220 220 217 214 211 208 205 202 201 205 210 216 221 226 227 217 202 207 210 205 206 208 212 219 219 220 220 217 214 213 209 207 207 208 208 207 207 208 211 214 215 216 216 216 214 213 218 227 243 258 268 278 286 292 298 305 310 313
213 216 213 211 211 210 209 208 206 205 206 206 201 189 182 182 187 194 200 202 205 213 214 208 215 224 218 218 220 218 216 215 215 212 209 204 200 205 211 218 221 222 227 221 210 217 216 204 203 207 212 217 217 216 217 214 211 210 210 209 210 211 211 211 211 211 212 213 214 213 212 210 208 213 223 234 248 259 268 275 282 289 297 303 307 310
212 215 214 212 212 210 210 210 209 208 206 209 208 196 183 180 184 193 200 197 201 210 215 215 220 226 220 221 221 220 218 216 216 213 211 208 201 202 212 217 217 218 222 218 215 225 224 208 204 209 213 215 214 215 215 213 211 210 211 211 210 211 211 212 213 213 213 213 212 209 206 205 209 216 225 235 246 256 264 273 281 291 300 305 307 308
210 209 210 211 212 211 210 209 209 208 207 210 210 202 195 192 189 200 205 202 208 215 220 220 223 232 230 223 220 221 220 215 214 213 211 211 206 205 211 214 214 215 218 215 213 216 214 208 208 211 213 213 211 213 213 211 210 210 211 210 209 210 211 212 212 212 212 211 208 205 204 206 211 218 227 237 245 255 264 274 285 295 303 305 306 307
208 205 206 207 208 212 213 211 209 206 206 212 211 205 204 204 206 215 217 214 219 232 237 223 217 227 237 226 220 216 217 214 213 215 213 213 212 209 209 209 211 211 207 205 203 200 204 209 212 213 213 210 209 209 208 208 209 208 209 209 209 210 210 210 209 208 204 200 199 200 203 208 215 223 233 242 250 259 267 276 286 295 303 305 304 304
207 208 212 211 210 213 215 214 212 208 205 208 210 206 206 210 216 224 231 236 239 249 246 228 215 218 237 228 220 211 212 214 215 216 214 214 214 212 209 207 207 207 202 200 198 199 206 213 214 215 213 209 209 209 206 206 206 206 207 207 207 207 204 202 199 195 192 192 196 202 209 218 226 235 243 252 260 268 274 278 286 295 301 303 303 302
206 205 211 216 219 218 217 215 213 212 207 203 204 200 198 205 213 223 231 234 241 249 243 235 226 222 237 233 224 221 220 220 219 216 211 210 210 209 208 206 206 204 202 203 203 204 210 214 215 216 214 210 210 210 207 205 203 203 204 204 203 201 197 194 192 191 193 198 205 213 222 231 240 248 256 263 270 275 278 281 288 296 301 301 300 297
203 196 200 209 215 213 210 209 208 210 206 199 199 191 182 182 188 207 213 208 224 238 237 240 234 226 231 229 224 227 225 225 226 220 212 210 207 203 204 204 205 207 209 208 206 205 209 213 215 214 212 209 209 210 209 205 203 202 202 201 198 195 193 193 194 196 200 207 216 225 235 243 251 257 264 270 275 277 279 284 290 296 298 296 293 289
198 198 200 205 206 200 195 193 192 198 198 194 193 184 173 165 169 189 195 196 224 205 177 227 223 220 234 234 225 217 208 210 216 220 218 214 207 200 199 202 204 210 213 209 204 204 209 212 213 213 211 209 207 209 208 204 203 202 201 198 195 193 194 196 199 202 207 214 223 232 241 249 256 263 269 274 276 277 280 285 290 293 293 291 289 289
183 193 199 201 204 201 195 188 183 185 188 187 187 183 176 167 170 194 196 201 235 183 171 210 207 214 238 238 232 228 225 223 215 212 212 209 206 201 198 201 207 213 213 209 206 208 211 211 212 212 212 210 208 208 207 205 203 202 200 198 195 196 199 202 206 210 215 222 229 238 246 255 262 269 272 272 272 274 279 284 288 291 292 289 288 288
169 179 194 194 199 202 201 200 196 189 184 186 190 190 189 186 182 194 199 202 193 161 191 206 207 213 210 216 226 226 228 232 228 216 206 200 202 205 203 201 206 213 213 211 210 210 212 212 211 212 212 212 211 208 206 205 204 203 201 201 201 202 206 210 214 219 225 230 237 246 256 263 266 266 265 266 270 276 282 287 291 292 290 287 286 287
173 166 188 188 194 202 200 203 207 197 185 187 193 197 199 198 194 193 197 198 177 125 180 202 212 206 183 189 208 211 217 219 218 213 204 199 197 201 205 206 208 213 213 214 212 211 212 212 211 213 213 213 212 208 205 205 205 205 204 205 208 209 212 216 222 229 232 236 244 253 260 264 261 258 260 266 274 281 287 292 294 293 289 286 286 287
179 165 177 182 183 196 199 199 201 199 192 188 192 200 202 200 199 197 179 183 188 195 209 211 214 192 185 203 206 204 209 208 206 201 196 198 197 197 203 208 211 213 215 217 215 213 212 210 211 213 213 214 213 209 207 207 208 210 210 211 215 216 218 221 226 232 236 239 247 255 260 260 256 256 262 271 280 286 292 295 294 292 289 286 286 288
178 160 169 182 176 175 191 197 197 201 202 195 195 201 199 199 210 213 186 161 186 215 217 211 207 185 190 212 209 204 205 203 203 193 187 194 198 199 205 212 214 214 215 215 213 215 214 211 211 212 211 213 214 212 212 213 214 217 219 220 223 224 224 226 229 233 237 242 248 254 256 255 253 257 267 275 282 287 291 292 291 291 289 288 289 290
176 158 165 187 185 174 179 189 195 201 208 206 204 204 198 198 208 203 191 175 188 211 220 205 209 200 200 205 207 207 206 206 202 188 188 197 200 199 205 215 217 215 217 217 216 220 219 212 212 212 210 212 214 213 214 215 217 220 224 226 227 227 225 226 229 233 237 242 248 252 253 251 252 258 266 273 280 286 290 292 293 293 292 291 292 293
179 172 166 183 187 184 180 187 195 197 201 207 210 205 200 203 204 196 197 197 183 197 213 193 197 216 218 218 218 220 218 222 214 196 194 200 201 199 202 212 214 211 216 221 223 225 220 210 209 210 211 213 214 216 217 219 223 225 227 228 227 227 225 224 227 232 237 242 247 252 253 251 250 256 264 273 281 287 290 292 294 295 295 296 296 298
183 186 182 181 185 192 192 193 195 195 194 196 199 198 198 200 197 195 203 206 194 173 187 220 240 193 212 216 212 210 212 220 216 203 200 200 202 202 202 212 216 212 215 220 225 230 226 211 203 206 211 214 213 218 223 226 229 230 230 230 228 229 228 226 228 234 239 243 246 252 253 249 249 256 266 274 281 285 288 292 295 297 299 300 301 302
189 190 188 184 188 196 201 198 197 198 198 196 195 195 197 195 184 186 206 210 206 178 120 211 268 140 169 186 187 191 197 202 200 197 201 202 202 203 204 212 218 216 217 219 225 234 233 217 206 209 213 214 214 221 229 234 236 235 233 230 231 233 233 231 232 238 242 242 245 250 250 248 250 257 267 273 278 283 287 291 294 298 300 302 303 304
192 191 189 189 193 196 201 202 201 203 204 204 203 201 201 201 196 194 202 198 198 206 92 107 324 5 164 174 179 183 186 189 189 190 197 204 205 202 203 209 216 218 218 218 222 230 228 215 210 212 211 214 221 228 238 241 238 240 244 238 236 238 238 239 240 242 244 242 244 247 246 247 250 258 265 271 276 280 284 290 294 298 300 301 303 303
183 191 189 182 188 193 197 202 203 204 206 209 210 206 204 206 205 205 207 196 199 211 205 177 284 256 174 176 184 183 181 184 187 186 192 202 205 202 203 210 214 213 211 210 215 222 222 222 223 216 205 214 232 240 249 250 247 259 265 249 243 245 247 249 250 249 248 245 243 243 243 245 250 257 265 269 273 278 283 289 292 295 298 299 301 303
172 189 189 170 162 181 192 200 202 203 206 210 211 209 207 208 207 209 212 210 212 216 211 205 228 228 212 176 187 188 186 186 186 188 192 198 202 201 202 206 207 203 202 203 206 209 216 224 223 210 202 215 235 245 253 254 255 265 269 261 258 259 258 258 256 252 248 243 240 238 240 245 250 258 264 266 271 276 281 286 290 293 295 298 301 304
174 186 191 185 166 175 182 187 195 198 201 207 211 210 209 207 206 206 205 205 211 213 210 209 212 220 239 264 206 198 196 191 188 190 192 195 201 205 204 203 202 198 197 203 207 208 213 215 209 204 206 213 224 238 248 251 252 260 269 272 272 268 263 258 253 246 240 236 235 235 239 246 252 257 261 264 269 274 279 283 286 288 291 295 299 302
187 186 190 193 193 194 195 195 197 198 198 202 208 211 211 209 208 208 206 209 210 203 206 214 218 226 242 257 256 229 209 201 195 190 191 194 196 203 207 206 204 202 201 207 211 211 214 215 212 212 210 209 216 231 241 245 250 262 271 273 272 269 259 248 239 234 231 230 230 234 241 248 252 256 258 262 267 272 276 280 281 284 288 292 296 299
198 195 193 195 197 197 198 200 203 204 203 203 205 209 211 210 211 213 214 215 212 203 207 216 217 223 232 242 257 255 230 215 205 193 192 194 193 199 205 206 205 205 206 212 216 215 214 216 216 214 209 209 221 233 240 247 258 269 270 268 268 261 242 228 223 222 224 226 229 236 244 249 252 254 256 261 266 271 274 277 279 283 288 291 294 298
206 208 202 203 208 206 200 201 206 208 208 207 205 205 207 208 210 215 218 220 219 216 217 216 215 221 229 239 257 257 244 227 213 201 195 195 195 199 203 205 206 205 206 213 217 215 214 214 217 220 220 223 233 244 256 268 270 268 264 260 255 239 221 215 215 218 222 225 230 239 246 250 252 254 257 262 266 271 275 278 282 286 289 292 294 297
209 214 212 214 221 228 227 220 210 209 209 208 208 206 206 209 211 215 219 223 225 227 232 235 234 234 236 241 246 245 235 223 216 209 201 196 197 200 203 205 207 207 209 213 214 214 217 217 218 226 235 241 249 262 274 275 269 261 255 248 233 218 212 213 216 221 225 228 235 243 248 251 254 256 261 265 270 275 279 283 286 289 291 293 296 298
205 212 217 219 226 238 241 240 242 220 209 207 209 209 209 212 214 216 220 222 224 228 233 237 235 231 228 230 234 234 226 215 211 211 207 200 199 202 203 204 206 208 210 213 215 216 217 214 215 230 245 253 260 268 272 268 259 250 242 230 217 211 212 216 220 226 230 235 242 247 250 254 258 262 266 271 277 281 284 288 290 292 294 296 297 298
201 204 212 213 218 232 235 239 258 239 210 206 208 208 209 212 214 215 218 220 221 223 224 222 221 220 219 221 227 228 223 215 209 208 208 204 203 204 204 203 206 210 213 218 223 223 219 219 232 248 258 263 266 269 268 259 246 237 227 216 211 211 213 217 222 227 233 240 246 251 256 261 265 269 274 278 283 287 289 291 293 295 297 298 298 299
200 201 205 205 208 210 214 232 245 218 192 201 206 205 207 211 213 214 216 217 218 218 216 211 209 213 220 227 231 225 219 215 209 205 206 206 203 203 204 204 206 209 214 222 224 223 225 233 244 255 263 267 270 271 263 246 233 225 217 211 210 211 214 218 223 229 236 243 251 258 264 269 272 277 281 285 289 291 292 294 295 297 298 298 299 301
199 202 205 205 201 185 174 192 202 179 175 198 201 201 205 208 211 214 214 213 212 213 216 219 219 217 219 226 233 229 219 215 211 206 204 204 201 198 196 196 198 200 207 217 220 222 230 240 252 261 265 267 267 260 246 231 222 216 211 209 210 212 214 219 225 233 241 249 259 266 270 275 279 282 287 290 291 293 294 295 296 296 297 299 302 304
194 198 201 201 196 179 160 148 142 175 204 204 198 199 202 205 208 211 213 212 212 213 217 222 225 227 226 226 230 237 227 210 206 204 201 199 199 195 188 185 189 198 206 215 222 229 236 247 256 258 256 255 252 244 235 226 216 211 209 209 209 210 215 222 230 241 252 259 266 272 276 280 284 287 290 292 293 294 295 295 297 298 300 303 305 307
192 197 197 185 182 176 165 164 180 247 227 202 200 201 202 204 206 207 209 211 213 216 217 219 222 226 229 227 223 229 221 194 188 193 194 191 188 186 186 191 197 204 213 220 228 235 242 248 251 247 243 247 248 243 236 228 219 214 211 209 209 211 219 230 241 251 261 268 274 278 282 285 287 290 293 294 295 296 297 297 299 301 303 306 308 310
194 199 199 183 164 166 167 180 219 263 269 205 195 197 202 206 207 208 211 212 212 214 214 214 216 220 224 226 224 228 217 189 179 182 183 179 176 178 190 203 206 211 218 224 230 234 234 236 236 238 247 252 254 249 242 233 225 220 215 210 208 214 224 235 248 258 267 276 281 284 286 288 291 294 295 297 298 299 299 301 303 306 309 312 314 316
198 199 199 193 175 164 166 176 219 247 243 217 183 175 190 201 204 207 213 214 211 210 209 207 210 215 220 224 225 225 210 189 182 182 181 181 181 181 188 199 206 210 215 219 224 223 216 215 223 235 244 249 255 256 247 231 220 218 217 212 204 208 226 238 254 267 276 283 284 287 291 293 296 299 300 301 301 301 303 306 309 314 317 321 324 327
198 198 197 196 188 174 167 166 194 219 219 220 222 180 171 181 187 190 203 213 209 205 205 204 204 208 216 222 225 224 211 197 190 187 185 184 182 182 189 196 197 195 199 205 212 209 203 209 221 230 237 242 247 248 240 229 218 213 215 213 198 195 224 250 269 276 280 284 287 293 297 300 303 303 302 303 303 305 310 314 319 325 331 338 346 353
197 197 198 196 190 183 178 175 196 221 224 226 234 216 176 174 171 168 184 207 203 200 204 205 202 204 212 220 225 225 217 207 196 189 186 184 180 181 189 192 187 184 189 196 199 198 205 215 219 221 222 221 220 218 219 220 214 207 211 210 192 189 230 252 263 269 281 290 295 301 304 305 305 303 303 305 308 313 320 326 335 348 1 14 21 26
197 197 201 201 193 188 188 189 201 225 228 220 220 213 191 176 169 168 173 181 187 197 204 204 205 208 210 213 219 221 216 208 199 194 191 186 182 181 182 183 184 187 191 198 202 203 207 211 210 206 200 189 179 179 189 198 199 198 200 194 177 191 221 238 256 277 294 301 303 306 305 303 303 303 306 311 317 327 341 359 19 34 40 42 42 40
197 196 200 202 197 192 196 204 219 234 227 212 206 208 200 185 177 185 189 173 177 197 203 202 207 212 211 208 207 208 207 202 196 196 196 189 185 183 179 179 185 190 190 195 201 202 202 201 203 204 197 183 176 177 181 183 183 184 180 170 174 194 213 241 276 296 302 304 305 304 300 300 302 306 313 324 345 20 43 54 60 59 55 51 47 41
195 195 194 197 195 189 188 191 207 232 219 206 203 209 207 203 205 207 203 196 195 202 205 205 206 211 211 208 202 199 201 200 194 193 195 190 185 182 177 177 186 190 188 190 194 195 195 197 199 197 189 182 180 178 175 173 172 170 166 169 181 196 219 269 293 301 302 301 299 295 294 299 304 315 4 56 75 79 78 75 71 65 59 53 48 42
194 197 197 197 194 186 185 196 214 227 216 205 207 213 211 212 217 215 208 205 204 206 210 209 206 207 209 207 202 198 198 200 196 192 190 187 182 177 174 179 188 189 184 184 188 191 194 196 193 188 183 180 177 173 170 168 167 166 171 178 183 197 255 287 295 296 293 288 279 273 273 253 145 116 105 101 97 91 85 79 73 66 60 56 52 47
193 197 201 203 199 194 199 213 225 227 216 208 214 217 215 215 218 217 213 210 208 209 213 211 207 207 206 205 203 199 197 197 195 190 188 185 178 174 177 182 183 180 178 182 186 188 189 186 182 181 180 176 172 169 167 166 167 171 178 183 189 233 273 285 288 279 255 225 206 179 154 140 129 119 112 106 100 93 86 79 73 67 63 58 55 51
195 197 201 205 205 204 208 216 221 218 210 212 222 225 221 218 220 222 218 213 210 211 215 215 211 209 208 206 203 199 197 194 189 186 186 182 175 175 180 180 175 173 178 182 183 181 181 181 180 179 176 171 168 168 167 169 175 180 180 188 221 262 277 278 250 205 179 167 156 146 140 133 125 119 112 105 98 91 84 78 73 68 63 59 55 52
197 197 200 203 205 208 212 214 214 211 210 213 221 228 225 220 221 225 224 218 213 210 210 210 209 209 212 210 204 198 194 189 185 183 182 180 177 177 177 173 170 172 175 176 177 176 176 178 177 172 167 164 165 169 172 178 188 186 179 200 252 269 258 215 183 168 154 147 144 140 136 130 123 116 109 101 95 89 83 78 73 67 63 59 55 52
198 198 201 202 205 209 214 214 210 208 211 214 218 224 225 220 220 224 226 221 217 212 200 189 186 189 200 207 205 197 188 183 181 180 180 181 180 175 170 170 173 172 168 169 173 173 172 172 168 162 160 161 167 178 188 196 194 182 183 221 253 232 192 172 160 151 144 143 142 138 133 127 119 112 104 98 92 87 82 76 71 66 61 58 55 52
197 199 201 204 206 208 212 213 211 209 211 214 217 222 224 220 219 221 222 219 219 221 209 184 172 169 177 191 195 187 180 178 179 179 181 183 180 172 169 173 175 172 169 170 172 169 166 163 159 157 159 163 170 184 194 188 178 179 197 220 206 178 162 154 148 144 143 142 139 134 128 122 115 107 100 94 89 83 78 73 69 65 61 58 55 52
201 200 198 200 203 204 206 209 210 210 211 213 217 223 226 223 220 219 216 212 212 217 217 205 188 177 173 178 184 181 177 175 174 177 182 184 178 174 175 177 176 176 176 175 172 166 160 155 154 156 157 158 162 171 173 169 174 187 194 184 170 159 151 145 143 142 141 139 135 130 124 117 110 103 96 91 85 80 76 72 68 64 59 56 53 50
211 206 197 197 202 204 207 209 207 208 213 217 222 229 232 229 226 220 213 209 208 205 201 204 205 197 185 176 174 176 178 177 174 176 182 183 180 180 182 180 179 183 183 179 173 166 158 154 155 154 149 148 153 160 165 171 179 178 167 161 158 153 147 143 141 140 139 135 130 124 117 110 104 98 93 87 82 78 74 70 66 63 59 55 52 49
Height
3060 3062 3060 3060 3063 3067 3072 3077 3081 3084 3087 3090 3093 3095 3097 3099 3101 3103 3104 3105 3106 3107 3108 3109 3111 3113 3115 3117 3119 3121 3122 3124 3125 3126 3128 3129 3131 3133 3135 3135 3135 3135 3136 3136 3135 3135 3136 3139 3143 3145 3146 3148 3149 3150 3151 3152 3152 3153 3154 3155 3156 3158 3159 3160 3162 3163 3164 3165 3165 3167 3168 3169 3170 3170 3171 3172 3172 3173 3173 3174 3174 3174 3173 3173 3173 3172
3058 3057 3056 3059 3064 3069 3074 3078 3082 3085 3087 3090 3092 3094 3096 3099 3100 3102 3103 3104 3105 3106 3107 3108 3110 3111 3114 3116 3118 3119 3120 3121 3123 3124 3126 3128 3130 3132 3133 3133 3133 3134 3137 3139 3140 3140 3139 3139 3142 3145 3146 3148 3149 3149 3150 3151 3152 3153 3154 3155 3156 3157 3159 3160 3161 3162 3163 3164 3165 3166 3167 3168 3169 3170 3170 3171 3172 3172 3172 3173 3173 3172 3172 3172 3171 3171
3053 3051 3054 3060 3065 3070 3074 3077 3081 3084 3087 3089 3091 3093 3095 3097 3099 3101 3102 3103 3104 3105 3106 3107 3108 3110 3112 3114 3116 3117 3118 3120 3122 3123 3125 3127 3129 3131 3131 3131 3133 3134 3135 3136 3140 3144 3143 3141 3142 3145 3146 3147 3148 3149 3150 3151 3152 3152 3153 3155 3156 3157 3158 3159 3160 3161 3162 3163 3165 3166 3167 3168 3168 3169 3170 3170 3171 3171 3171 3171 3171 3171 3171 3170 3170 3169
3048 3048 3054 3060 3065 3069 3072 3076 3080 3083 3086 3088 3089 3092 3093 3095 3098 3100 3101 3102 3102 3103 3104 3106 3107 3109 3110 3112 3113 3115 3117 3119 3120 3122 3124 3126 3128 3129 3130 3131 3132 3133 3132 3133 3137 3141 3142 3141 3142 3144 3146 3147 3148 3149 3149 3150 3151 3152 3153 3154 3156 3157 3158 3159 3160 3161 3162 3163 3164 3165 3166 3167 3168 3168 3169 3170 3170 3170 3170 3170 3170 3170 3169 3169 3169 3168
3047 3049 3055 3060 3063 3067 3071 3074 3077 3080 3083 3086 3088 3090 3092 3094 3097 3099 3100 3101 3102 3103 3103 3105 3106 3106 3107 3109 3110 3112 3115 3116 3117 3120 3123 3125 3126 3127 3128 3129 3130 3131 3133 3135 3137 3138 3139 3139 3142 3144 3145 3146 3147 3148 3149 3150 3151 3152 3153 3154 3155 3156 3158 3159 3160 3161 3162 3162 3163 3164 3165 3166 3167 3168 3168 3169 3169 3169 3169 3169 3169 3168 3168 3168 3168 3167
3048 3050 3055 3059 3061 3065 3068 3071 3074 3077 3081 3084 3086 3088 3091 3094 3096 3098 3099 3100 3102 3102 3102 3103 3104 3103 3105 3107 3108 3110 3112 3113 3115 3119 3122 3123 3124 3125 3126 3127 3128 3131 3134 3136 3138 3140 3139 3138 3140 3143 3144 3145 3147 3147 3148 3149 3150 3151 3153 3154 3155 3157 3158 3159 3160 3160 3161 3162 3163 3164 3165 3166 3166 3167 3167 3168 3168 3168 3168 3168 3168 3167 3167 3167 3167 3166
3047 3050 3054 3057 3060 3063 3066 3069 3072 3075 3079 3081 3083 3087 3091 3093 3095 3097 3098 3099 3100 3100 3100 3101 3101 3101 3102 3104 3106 3108 3109 3111 3113 3116 3119 3120 3121 3122 3123 3124 3127 3130 3132 3135 3137 3141 3142 3139 3140 3142 3143 3145 3146 3147 3148 3149 3150 3151 3152 3154 3155 3157 3158 3158 3159 3160 3161 3162 3163 3164 3165 3165 3165 3166 3167 3167 3167 3167 3167 3167 3167 3166 3166 3166 3165 3165
3044 3048 3052 3055 3058 3061 3063 3066 3070 3074 3078 3079 3082 3088 3091 3092 3095 3096 3097 3099 3099 3099 3099 3099 3099 3100 3100 3102 3104 3105 3107 3108 3110 3113 3116 3118 3119 3120 3121 3122 3125 3129 3132 3134 3137 3140 3141 3140 3140 3141 3142 3143 3145 3146 3147 3148 3149 3151 3152 3154 3155 3156 3157 3158 3159 3160 3161 3162 3163 3163 3164 3164 3165 3165 3166 3166 3166 3166 3166 3166 3165 3165 3165 3164 3164 3163
3042 3046 3050 3053 3057 3059 3060 3064 3069 3074 3077 3079 3083 3088 3091 3093 3094 3095 3097 3098 3098 3099 3097 3096 3098 3099 3097 3098 3101 3102 3104 3105 3106 3110 3113 3115 3117 3118 3119 3121 3124 3128 3131 3133 3136 3138 3139 3139 3139 3139 3140 3142 3143 3144 3145 3147 3149 3150 3152 3153 3155 3156 3157 3158 3159 3160 3161 3162 3162 3163 3163 3164 3164 3164 3165 3165 3165 3165 3165 3164 3164 3164 3163 3163 3162 3162
3043 3047 3050 3053 3056 3057 3060 3065 3069 3073 3077 3079 3084 3088 3090 3093 3094 3095 3097 3097 3099 3097 3093 3093 3096 3096 3094 3095 3098 3099 3100 3102 3103 3107 3111 3113 3114 3116 3118 3120 3123 3126 3128 3130 3133 3135 3137 3137 3137 3138 3139 3141 3142 3143 3145 3146 3148 3150 3151 3153 3154 3155 3156 3157 3158 3159 3160 3161 3162 3162 3163 3163 3163 3164 3164 3164 3164 3164 3164 3163 3163 3163 3162 3161 3161 3160
3044 3047 3051 3053 3054 3057 3061 3066 3069 3073 3076 3079 3083 3086 3089 3092 3093 3095 3095 3097 3098 3093 3088 3090 3094 3095 3094 3092 3094 3096 3097 3100 3102 3105 3108 3109 3111 3114 3117 3119 3121 3123 3125 3128 3130 3132 3134 3136 3136 3137 3139 3140 3142 3143 3144 3146 3147 3149 3150 3152 3153 3155 3156 3157 3158 3159 3159 3160 3161 3162 3162 3162 3163 3163 3163 3163 3163 3163 3162 3162 3162 3161 3160 3160 3159 3158
3043 3046 3048 3050 3053 3057 3061 3064 3068 3072 3075 3077 3080 3084 3087 3090 3092 3094 3094 3096 3094 3087 3084 3089 3092 3094 3092 3089 3091 3094 3096 3099 3100 3102 3104 3106 3109 3112 3115 3117 3119 3121 3123 3125 3128 3130 3132 3134 3135 3136 3138 3139 3141 3142 3144 3145 3147 3148 3150 3151 3153 3154 3155 3156 3157 3158 3159 3159 3160 3161 3161 3161 3162 3162 3162 3162 3162 3161 3161 3161 3160 3159 3158 3158 3157 3157
3042 3044 3046 3048 3052 3055 3058 3061 3065 3069 3072 3075 3077 3080 3083 3086 3090 3091 3090 3090 3087 3084 3084 3088 3090 3091 3088 3087 3090 3092 3094 3095 3097 3099 3102 3104 3108 3111 3113 3115 3117 3118 3120 3123 3125 3128 3131 3132 3134 3135 3137 3138 3140 3141 3143 3145 3146 3148 3149 3151 3152 3153 3155 3156 3156 3157 3158 3158 3159 3160 3160 3160 3161 3161 3161 3161 3160 3160 3159 3159 3158 3157 3157 3156 3156 3155
3040 3043 3044 3047 3049 3052 3055 3057 3059 3062 3066 3070 3072 3075 3077 3079 3083 3086 3084 3083 3083 3083 3085 3087 3088 3087 3084 3085 3088 3089 3091 3093 3095 3097 3099 3102 3106 3108 3110 3113 3115 3117 3119 3121 3124 3127 3129 3130 3132 3134 3136 3137 3139 3140 3142 3144 3146 3147 3149 3150 3152 3153 3154 3155 3156 3156 3157 3157 3158 3158 3158 3159 3159 3159 3159 3159 3159 3158 3158 3157 3157 3156 3155 3155 3154 3154
3036 3039 3040 3043 3045 3048 3052 3055 3056 3059 3064 3068 3070 3072 3073 3073 3076 3078 3078 3078 3080 3081 3084 3086 3086 3082 3081 3083 3084 3086 3089 3092 3094 3096 3097 3100 3103 3105 3108 3110 3113 3115 3117 3119 3122 3125 3127 3129 3131 3133 3135 3136 3138 3139 3141 3143 3145 3146 3148 3149 3151 3152 3153 3154 3155 3155 3156 3156 3157 3157 3157 3158 3158 3158 3157 3157 3157 3157 3156 3155 3155 3154 3154 3153 3153 3152
3034 3036 3038 3042 3045 3047 3050 3054 3058 3061 3064 3066 3069 3071 3071 3071 3073 3074 3075 3076 3078 3080 3081 3082 3081 3079 3079 3081 3083 3084 3087 3089 3092 3094 3096 3098 3100 3103 3106 3108 3110 3112 3115 3118 3120 3122 3124 3127 3129 3131 3133 3134 3135 3137 3139 3142 3144 3145 3147 3148 3149 3150 3151 3152 3153 3154 3154 3154 3155 3155 3155 3156 3156 3156 3156 3156 3155 3155 3154 3153 3153 3152 3152 3151 3151 3150
3032 3035 3038 3042 3044 3046 3049 3053 3056 3059 3061 3063 3066 3066 3067 3070 3073 3074 3075 3076 3078 3079 3078 3077 3077 3077 3080 3081 3081 3083 3084 3087 3090 3092 3094 3097 3098 3101 3103 3105 3106 3108 3112 3115 3117 3120 3122 3124 3126 3128 3130 3132 3133 3136 3139 3141 3143 3144 3145 3147 3147 3149 3150 3151 3151 3152 3152 3152 3153 3153 3153 3153 3153 3154 3154 3154 3153 3153 3152 3152 3151 3150 3150 3149 3149 3148
3030 3035 3038 3041 3043 3046 3048 3052 3055 3057 3058 3060 3061 3062 3067 3072 3073 3072 3074 3076 3077 3076 3074 3073 3074 3075 3077 3078 3079 3082 3083 3085 3088 3091 3093 3095 3097 3099 3100 3102 3103 3107 3112 3114 3115 3116 3117 3119 3122 3124 3127 3130 3133 3137 3140 3141 3142 3143 3144 3145 3146 3147 3148 3149 3149 3149 3150 3150 3150 3151 3151 3151 3151 3152 3152 3151 3151 3151 3151 3150 3149 3149 3148 3147 3147 3146
3030 3034 3038 3041 3043 3045 3047 3051 3053 3055 3056 3058 3059 3062 3066 3068 3068 3069 3072 3072 3073 3074 3072 3071 3072 3073 3074 3075 3078 3081 3083 3084 3087 3089 3090 3092 3094 3096 3098 3100 3103 3108 3113 3112 3109 3109 3112 3117 3121 3123 3127 3129 3132 3135 3137 3138 3139 3140 3141 3143 3144 3145 3146 3146 3146 3147 3147 3148 3148 3149 3149 3149 3149 3150 3150 3150 3150 3149 3149 3148 3147 3147 3146 3145 3145 3144
3028 3032 3036 3039 3042 3044 3046 3047 3047 3049 3053 3057 3059 3061 3063 3064 3064 3066 3068 3067 3069 3071 3071 3070 3069 3070 3070 3073 3077 3080 3082 3084 3085 3086 3088 3090 3092 3094 3097 3098 3101 3105 3107 3104 3103 3107 3113 3119 3122 3125 3128 3129 3130 3132 3134 3135 3136 3137 3139 3140 3142 3143 3143 3144 3144 3144 3145 3145 3146 3146 3146 3147 3147 3148 3148 3148 3148 3147 3147 3146 3145 3144 3144 3143 3142 3142
3027 3030 3033 3036 3040 3041 3040 3040 3042 3046 3049 3053 3055 3057 3059 3061 3062 3064 3065 3066 3066 3068 3069 3069 3067 3066 3068 3071 3075 3078 3081 3082 3083 3084 3086 3087 3089 3092 3095 3096 3098 3099 3099 3101 3106 3112 3116 3120 3123 3125 3126 3127 3129 3130 3132 3133 3134 3135 3137 3138 3139 3140 3141 3142 3142 3142 3143 3143 3144 3144 3144 3145 3145 3146 3146 3146 3146 3145 3145 3144 3143 3142 3141 3141 3140 3139
3026 3028 3031 3033 3035 3036 3037 3039 3043 3046 3047 3049 3051 3053 3055 3058 3060 3061 3062 3063 3064 3065 3067 3068 3066 3065 3067 3069 3071 3075 3077 3079 3080 3082 3083 3085 3087 3090 3093 3094 3095 3096 3098 3104 3111 3114 3116 3119 3122 3123 3124 3125 3128 3130 3130 3131 3131 3132 3134 3136 3137 3137 3138 3139 3139 3140 3140 3141 3141 3142 3142 3142 3143 3143 3144 3144 3143 3143 3142 3141 3141 3140 3139 3138 3138 3137
3025 3027 3029 3031 3032 3035 3038 3041 3044 3045 3047 3050 3051 3052 3054 3055 3056 3057 3057 3059 3063 3065 3066 3067 3067 3066 3066 3068 3069 3072 3074 3076 3079 3080 3081 3083 3085 3087 3090 3092 3093 3096 3101 3106 3110 3112 3114 3118 3121 3123 3124 3125 3127 3128 3129 3129 3129 3131 3132 3133 3134 3134 3135 3136 3137 3137 3138 3138 3139 3139 3140 3140 3141 3141 3141 3141 3141 3141 3140 3139 3138 3138 3137 3136 3136 3135
3024 3026 3028 3030 3033 3036 3039 3041 3043 3045 3047 3048 3048 3049 3051 3051 3053 3055 3056 3059 3063 3064 3065 3067 3067 3066 3066 3067 3068 3070 3072 3074 3076 3078 3079 3081 3083 3085 3088 3090 3092 3096 3100 3104 3107 3110 3114 3118 3121 3123 3125 3126 3127 3127 3127 3127 3128 3130 3130 3131 3131 3132 3132 3133 3134 3135 3135 3136 3137 3137 3138 3138 3139 3139 3139 3139 3139 3138 3138 3137 3136 3136 3135 3134 3134 3133
3020 3023 3025 3027 3031 3035 3038 3039 3040 3040 3041 3041 3043 3046 3048 3050 3053 3056 3057 3059 3060 3059 3062 3066 3065 3065 3066 3066 3067 3069 3070 3072 3074 3075 3077 3078 3081 3084 3086 3089 3092 3095 3099 3103 3105 3108 3112 3116 3119 3121 3123 3125 3125 3125 3124 3124 3126 3128 3128 3128 3129 3129 3129 3130 3131 3132 3133 3134 3134 3135 3135 3136 3136 3136 3136 3137 3136 3136 3136 3135 3134 3134 3133 3132 3131 3130
3019 3021 3023 3024 3025 3027 3029 3029 3030 3032 3035 3038 3041 3044 3047 3049 3052 3053 3055 3056 3055 3056 3059 3061 3062 3064 3066 3066 3067 3068 3069 3070 3072 3073 3075 3077 3080 3082 3085 3088 3091 3094 3098 3101 3103 3107 3110 3113 3116 3119 3121 3122 3122 3122 3121 3122 3124 3125 3125 3125 3125 3126 3126 3127 3128 3129 3130 3131 3132 3132 3133 3134 3134 3134 3134 3134 3134 3134 3134 3133 3132 3131 3131 3130 3129 3128
3018 3020 3022 3023 3023 3024 3024 3026 3028 3031 3035 3037 3040 3043 3045 3047 3050 3052 3053 3052 3052 3054 3057 3058 3060 3064 3065 3066 3066 3067 3068 3069 3070 3071 3073 3076 3078 3081 3084 3087 3090 3094 3097 3099 3102 3106 3109 3112 3113 3115 3116 3117 3119 3119 3118 3119 3121 3122 3122 3122 3122 3122 3122 3123 3124 3126 3127 3128 3129 3130 3131 3131 3132 3132 3132 3132 3132 3132 3131 3131 3130 3129 3128 3127 3126 3125
3018 3019 3021 3023 3024 3026 3027 3029 3030 3032 3033 3035 3038 3041 3043 3046 3049 3050 3049 3049 3051 3054 3055 3057 3060 3063 3064 3065 3065 3066 3067 3068 3069 3070 3071 3074 3077 3080 3083 3087 3090 3093 3096 3098 3101 3104 3106 3109 3110 3110 3111 3114 3116 3116 3116 3117 3119 3119 3119 3119 3118 3119 3119 3121 3122 3123 3125 3126 3127 3128 3129 3129 3130 3130 3130 3130 3130 3129 3129 3128 3127 3127 3126 3125 3124 3123
3017 3019 3020 3022 3023 3025 3027 3028 3030 3030 3032 3034 3036 3039 3041 3043 3045 3045 3046 3049 3052 3053 3054 3057 3060 3061 3063 3064 3064 3064 3065 3067 3068 3069 3070 3073 3076 3079 3082 3085 3088 3091 3094 3096 3099 3102 3104 3106 3108 3108 3110 3113 3114 3115 3116 3117 3117 3116 3116 3116 3116 3117 3118 3119 3120 3122 3123 3124 3124 3126 3127 3127 3127 3128 3127 3127 3127 3127 3126 3126 3125 3124 3123 3122 3121 3120
3017 3018 3020 3021 3023 3024 3026 3027 3028 3029 3031 3033 3035 3037 3039 3041 3042 3044 3047 3049 3051 3052 3054 3057 3059 3060 3062 3062 3063 3063 3064 3065 3068 3069 3070 3073 3076 3079 3081 3084 3086 3090 3093 3095 3097 3100 3101 3103 3106 3108 3109 3111 3112 3113 3113 3114 3113 3114 3114 3114 3114 3115 3116 3118 3119 3120 3121 3122 3123 3124 3124 3125 3125 3125 3125 3125 3125 3124 3124 3124 3123 3122 3121 3119 3118 3117
3016 3017 3019 3021 3023 3024 3024 3026 3027 3028 3030 3031 3033 3035 3037 3039 3041 3043 3045 3047 3048 3051 3053 3055 3056 3057 3059 3060 3061 3062 3063 3064 3066 3068 3070 3072 3075 3077 3080 3083 3086 3089 3092 3094 3096 3098 3099 3100 3103 3105 3106 3107 3108 3109 3110 3110 3110 3111 3111 3111 3112 3114 3115 3116 3117 3119 3119 3120 3121 3122 3122 3123 3123 3123 3123 3123 3122 3122 3122 3121 3120 3119 3118 3116 3115 3113
3014 3016 3018 3020 3022 3023 3023 3025 3026 3027 3028 3030 3031 3033 3034 3036 3038 3040 3041 3043 3046 3049 3051 3053 3054 3055 3057 3058 3059 3060 3061 3063 3064 3066 3069 3071 3073 3076 3079 3082 3085 3088 3091 3093 3095 3096 3097 3099 3102 3103 3103 3104 3105 3106 3107 3107 3108 3108 3109 3110 3111 3112 3113 3114 3116 3117 3117 3118 3119 3119 3120 3120 3121 3121 3121 3120 3120 3120 3119 3118 3117 3116 3115 3113 3112 3110
3013 3015 3017 3019 3021 3022 3023 3024 3024 3025 3027 3027 3028 3029 3031 3033 3035 3037 3039 3041 3044 3047 3050 3051 3053 3054 3055 3056 3057 3058 3059 3061 3063 3065 3067 3070 3072 3075 3078 3082 3085 3088 3090 3093 3094 3096 3097 3099 3100 3101 3101 3102 3103 3103 3104 3104 3105 3106 3107 3108 3109 3110 3112 3113 3114 3115 3115 3116 3116 3117 3118 3118 3118 3118 3118 3118 3117 3117 3116 3115 3114 3113 3112 3110 3108 3106
3013 3015 3017 3018 3020 3021 3022 3023 3024 3025 3025 3024 3025 3027 3030 3031 3033 3035 3037 3040 3043 3045 3048 3050 3052 3053 3054 3055 3056 3057 3058 3060 3062 3064 3067 3069 3072 3074 3077 3081 3084 3087 3089 3092 3094 3095 3096 3097 3098 3099 3100 3101 3101 3101 3102 3103 3104 3105 3106 3107 3108 3109 3110 3111 3112 3113 3113 3114 3114 3115 3115 3116 3116 3116 3116 3115 3115 3114 3113 3113 3111 3110 3108 3107 3105 3103
3012 3014 3016 3017 3019 3021 3021 3023 3025 3026 3023 3022 3024 3026 3028 3030 3032 3034 3036 3038 3041 3044 3047 3049 3051 3052 3053 3054 3055 3056 3057 3059 3061 3064 3067 3069 3072 3075 3077 3080 3083 3086 3088 3090 3092 3093 3094 3095 3097 3098 3099 3100 3100 3100 3101 3102 3103 3104 3105 3106 3106 3107 3108 3109 3110 3111 3111 3112 3112 3113 3113 3114 3114 3114 3113 3113 3112 3111 3111 3110 3108 3107 3105 3104 3102 3100
3011 3013 3015 3016 3018 3019 3020 3022 3025 3024 3023 3023 3024 3025 3026 3028 3030 3032 3034 3037 3039 3042 3045 3047 3049 3051 3052 3053 3054 3055 3056 3058 3060 3063 3066 3069 3072 3075 3077 3080 3083 3086 3087 3089 3090 3091 3093 3094 3095 3096 3097 3098 3099 3100 3100 3101 3102 3103 3103 3104 3105 3106 3107 3108 3109 3109 3110 3110 3111 3111 3112 3112 3112 3111 3111 3110 3110 3109 3108 3107 3106 3104 3102 3101 3099 3097
3010 3012 3014 3015 3017 3018 3019 3021 3023 3023 3023 3023 3023 3024 3026 3027 3029 3031 3033 3035 3038 3041 3043 3045 3047 3048 3050 3052 3053 3054 3056 3057 3059 3062 3065 3068 3071 3075 3078 3081 3083 3085 3086 3088 3089 3090 3091 3092 3093 3094 3095 3096 3097 3098 3098 3099 3100 3102 3102 3103 3104 3105 3106 3107 3107 3108 3108 3109 3109 3110 3110 3110 3109 3109 3109 3108 3107 3106 3105 3104 3103 3101 3099 3098 3096 3095
3009 3011 3013 3015 3016 3017 3019 3021 3023 3024 3023 3023 3024 3024 3026 3027 3028 3031 3033 3034 3036 3038 3040 3042 3044 3046 3048 3050 3052 3053 3054 3056 3057 3060 3062 3066 3069 3073 3076 3080 3082 3084 3085 3086 3087 3089 3090 3090 3092 3093 3094 3094 3095 3096 3097 3098 3099 3100 3102 3102 3103 3104 3105 3105 3106 3106 3107 3107 3108 3108 3108 3108 3107 3107 3106 3106 3105 3104 3102 3101 3100 3098 3097 3096 3094 3093
3008 3010 3012 3014 3016 3017 3018 3020 3022 3023 3023 3023 3023 3024 3025 3026 3027 3029 3031 3032 3034 3036 3039 3040 3042 3045 3047 3049 3050 3052 3053 3054 3056 3058 3061 3063 3067 3071 3074 3077 3080 3082 3084 3085 3087 3088 3089 3090 3091 3092 3092 3093 3093 3094 3095 3097 3098 3099 3100 3101 3101 3102 3103 3104 3105 3105 3106 3106 3106 3106 3106 3106 3105 3105 3104 3103 3102 3101 3100 3099 3098 3097 3096 3094 3093 3092
3007 3009 3011 3013 3014 3016 3017 3019 3021 3022 3022 3022 3023 3023 3024 3025 3026 3028 3030 3030 3032 3035 3037 3039 3041 3043 3045 3047 3049 3050 3052 3054 3055 3057 3059 3062 3065 3069 3074 3077 3078 3080 3082 3084 3085 3086 3088 3089 3090 3090 3091 3091 3092 3093 3094 3096 3097 3098 3099 3100 3100 3100 3102 3103 3104 3104 3105 3105 3105 3104 3104 3104 3103 3103 3102 3101 3100 3099 3099 3098 3097 3096 3095 3094 3093 3092
3006 3008 3010 3011 3013 3015 3016 3018 3019 3020 3021 3021 3022 3022 3023 3024 3025 3027 3027 3028 3030 3033 3035 3037 3039 3040 3042 3045 3047 3049 3051 3053 3055 3057 3059 3061 3064 3068 3072 3075 3078 3080 3081 3083 3084 3086 3087 3088 3089 3089 3090 3091 3091 3093 3094 3095 3096 3097 3098 3098 3099 3100 3102 3102 3103 3103 3103 3103 3103 3103 3102 3102 3101 3101 3100 3100 3099 3098 3098 3097 3096 3095 3095 3094 3092 3091
3005 3007 3009 3010 3012 3013 3015 3017 3018 3019 3019 3020 3021 3021 3022 3023 3024 3025 3026 3027 3029 3031 3033 3035 3037 3038 3040 3042 3044 3047 3049 3052 3054 3057 3058 3060 3063 3066 3069 3072 3075 3077 3079 3081 3083 3084 3086 3087 3088 3089 3089 3090 3091 3092 3094 3095 3096 3096 3097 3098 3098 3100 3100 3101 3102 3102 3102 3102 3102 3101 3101 3100 3100 3100 3099 3099 3098 3098 3097 3097 3096 3095 3094 3093 3092 3091
3004 3006 3008 3009 3010 3012 3013 3016 3017 3016 3017 3018 3019 3020 3021 3022 3023 3024 3025 3026 3028 3029 3031 3033 3034 3036 3038 3040 3042 3044 3047 3050 3053 3055 3057 3059 3062 3064 3067 3070 3073 3075 3077 3079 3081 3083 3084 3085 3086 3087 3088 3089 3091 3092 3093 3094 3095 3095 3096 3097 3098 3099 3099 3100 3100 3100 3100 3100 3100 3100 3100 3099 3099 3099 3099 3098 3098 3098 3097 3097 3096 3095 3094 3093 3092 3091
3003 3005 3006 3007 3008 3009 3011 3013 3014 3015 3016 3017 3018 3019 3020 3021 3022 3023 3024 3025 3026 3028 3029 3030 3032 3034 3036 3038 3040 3043 3045 3048 3051 3053 3055 3058 3060 3063 3067 3070 3072 3074 3076 3078 3080 3081 3083 3084 3085 3086 3088 3089 3090 3091 3092 3093 3094 3095 3096 3097 3097 3098 3098 3099 3099 3099 3099 3099 3099 3099 3099 3098 3098 3099 3099 3098 3098 3098 3098 3097 3096 3095 3094 3093 3092 3091
3001 3003 3004 3006 3007 3008 3009 3011 3013 3014 3015 3016 3016 3017 3019 3020 3021 3022 3023 3024 3025 3026 3027 3028 3030 3032 3034 3036 3039 3040 3043 3046 3049 3052 3054 3056 3058 3062 3066 3069 3071 3073 3075 3077 3078 3080 3081 3083 3084 3086 3087 3088 3090 3090 3091 3092 3093 3094 3095 3096 3096 3097 3097 3097 3097 3098 3098 3098 3098 3098 3098 3098 3098 3099 3099 3099 3099 3098 3098 3097 3096 3095 3094 3093 3092 3091
3000 3002 3004 3005 3006 3007 3009 3010 3012 3014 3015 3015 3016 3016 3017 3019 3020 3021 3022 3023 3023 3025 3026 3027 3028 3030 3032 3034 3036 3038 3041 3045 3048 3051 3053 3055 3058 3061 3065 3067 3069 3072 3074 3076 3077 3078 3080 3082 3083 3085 3086 3088 3089 3089 3090 3091 3092 3093 3094 3095 3095 3095 3095 3096 3096 3097 3097 3097 3098 3098 3098 3098 3099 3099 3099 3099 3099 3098 3098 3097 3096 3095 3095 3094 3093 3092
3000 3001 3002 3004 3005 3007 3008 3009 3011 3013 3014 3015 3015 3015 3016 3018 3019 3020 3021 3022 3023 3024 3024 3025 3027 3029 3031 3033 3035 3037 3040 3044 3047 3049 3052 3054 3057 3060 3063 3066 3068 3070 3073 3075 3076 3078 3080 3081 3083 3084 3085 3086 3087 3088 3089 3090 3091 3092 3093 3093 3094 3094 3094 3095 3096 3096 3097 3097 3097 3098 3098 3099 3099 3099 3099 3099 3099 3098 3098 3097 3097 3096 3095 3094 3094 3093
2999 3000 3002 3003 3004 3006 3007 3009 3010 3011 3012 3013 3014 3014 3015 3017 3018 3020 3021 3022 3023 3024 3024 3024 3025 3027 3030 3032 3034 3036 3039 3042 3045 3047 3050 3053 3056 3059 3062 3065 3067 3069 3071 3074 3076 3078 3079 3081 3082 3083 3084 3085 3086 3087 3088 3089 3090 3091 3092 3092 3093 3093 3093 3094 3095 3096 3096 3097 3097 3098 3099 3099 3099 3100 3100 3099 3099 3099 3098 3098 3097 3096 3096 3095 3094 3094
2997 2999 3000 3002 3003 3005 3006 3008 3009 3010 3011 3012 3013 3014 3015 3016 3018 3019 3020 3021 3022 3023 3024 3024 3025 3027 3029 3031 3033 3035 3038 3041 3044 3047 3050 3052 3055 3058 3061 3064 3066 3069 3071 3074 3076 3077 3078 3080 3081 3082 3083 3084 3085 3086 3087 3088 3089 3090 3091 3091 3092 3092 3093 3094 3095 3095 3096 3097 3098 3098 3099 3099 3100 3100 3100 3100 3099 3099 3099 3098 3098 3097 3097 3096 3095 3095
2996 2997 2999 3001 3002 3004 3005 3007 3008 3009 3010 3011 3012 3013 3014 3015 3017 3018 3020 3021 3022 3023 3024 3024 3025 3026 3028 3030 3033 3035 3037 3040 3043 3047 3050 3053 3055 3058 3060 3063 3066 3068 3071 3073 3074 3075 3077 3079 3080 3081 3082 3083 3084 3085 3086 3088 3089 3090 3090 3091 3091 3092 3093 3094 3095 3096 3097 3097 3098 3099 3099 3099 3100 3100 3100 3100 3100 3100 3099 3099 3099 3098 3098 3097 3096 3096
2995 2996 2998 3000 3001 3002 3004 3005 3006 3007 3008 3010 3011 3012 3013 3014 3016 3017 3019 3020 3022 3023 3023 3024 3025 3026 3027 3029 3032 3035 3038 3040 3043 3045 3049 3052 3054 3057 3060 3063 3066 3068 3070 3072 3073 3075 3076 3078 3079 3080 3081 3083 3084 3085 3086 3087 3088 3089 3089 3090 3091 3091 3092 3094 3095 3096 3097 3098 3098 3099 3099 3099 3100 3100 3100 3100 3100 3100 3100 3100 3100 3099 3098 3098 3097 3096